CQ0XBF-11 Chamusca PT current weather conditions

sailwx.info

Wind from 170 at 1 knots gusting 10

Air temperature 18.3° C
Dewpoint 11.9° C

Last reported at 2017-Jun-24 01:09 UTC.
Time now 2017-Jun-24 01:44 UTC

Location: N 39°21' W 008°28'.
View on Google Maps.

See reports from other nearby stations

  
Tides and Currents Weather Stations Pressure Air Temp Water Temp Dewpoint Dewpoint Depression Visibility Wind Speed Wind Dir Waves Ship Positions
date/time (UTC)wind fromknots sea level pressurealtimeterstation pressurevisibilityair tempwater tempwave heightnotes
2017-Jun-24 01:09 170 1 gusting 10 18.3
2017-Jun-24 01:03 302 3 gusting 8 18.3
2017-Jun-24 00:59 336 3 gusting 8 18.3
2017-Jun-24 00:53 317 6 gusting 10 18.3
2017-Jun-24 00:49 284 4 gusting 8 18.3
2017-Jun-24 00:43 005 4 gusting 8 18.3
2017-Jun-24 00:39 358 1 gusting 6 18.9
2017-Jun-24 00:33 282 5 gusting 6 19.4
2017-Jun-24 00:29 002 2 gusting 6 18.9
2017-Jun-24 00:23 035 1 gusting 6 18.9
2017-Jun-24 00:19 022 4 gusting 6 18.9
2017-Jun-24 00:13 317 2 gusting 8 18.9
2017-Jun-24 00:09 337 3 gusting 7 18.9
2017-Jun-24 00:05 337 2 gusting 6 18.9
2017-Jun-23 23:59 279 2 gusting 7 18.9
2017-Jun-23 23:55 300 2 gusting 12 18.9
2017-Jun-23 23:48 317 5 gusting 7 18.9
2017-Jun-23 23:44 068 0 gusting 10 18.9
2017-Jun-23 23:38 351 1 gusting 8 18.9
2017-Jun-23 23:34 355 3 gusting 8 18.9
2017-Jun-23 23:28 279 3 gusting 6 19.4
2017-Jun-23 23:24 025 4 gusting 7 19.4
2017-Jun-23 23:18 313 4 gusting 7 19.4
2017-Jun-23 23:14 326 3 gusting 6 19.4
2017-Jun-23 23:08 345 3 gusting 6 19.4
2017-Jun-23 23:04 032 0 gusting 8 19.4
2017-Jun-23 22:58 347 4 gusting 7 19.4
2017-Jun-23 22:54 337 4 gusting 7 19.4
2017-Jun-23 22:50 329 4 gusting 6 20.0
2017-Jun-23 22:44 352 20.0
2017-Jun-23 22:40 213 3 gusting 7 20.0
2017-Jun-23 22:33 345 3 gusting 7 20.0
2017-Jun-23 22:29 303 2 gusting 8 20.0
2017-Jun-23 22:23 187 0 gusting 7 20.6
2017-Jun-23 22:19 284 1 gusting 6 20.6
2017-Jun-23 22:13 343 2 gusting 6 20.6
2017-Jun-23 22:09 309 2 gusting 5 20.6
2017-Jun-23 22:03 303 3 gusting 5 21.1
2017-Jun-23 21:59 306 2 gusting 6 21.1
2017-Jun-23 21:53 329 3 gusting 7 21.1
2017-Jun-23 21:49 282 2 gusting 6 21.1
2017-Jun-23 21:43 309 5 gusting 5 21.1
2017-Jun-23 21:39 298 1 gusting 6 21.7
2017-Jun-23 21:33 340 2 gusting 6 21.7
2017-Jun-23 21:29 322 3 gusting 9 22.2
2017-Jun-23 21:25 307 4 gusting 8 22.2
2017-Jun-23 21:19 223 1 gusting 6 22.2
2017-Jun-23 21:14 282 3 gusting 8 22.2
2017-Jun-23 21:08 022 3 gusting 8 21.7
2017-Jun-23 21:04 331 0 gusting 6 22.2
2017-Jun-23 20:58 327 3 gusting 6 22.8
2017-Jun-23 20:54 358 2 gusting 7 22.8
2017-Jun-23 20:48 232 0 gusting 5 22.8
2017-Jun-23 20:44 174 0 gusting 7 23.3
2017-Jun-23 20:38 309 3 gusting 6 22.8
2017-Jun-23 20:34 153 4 gusting 6 22.8
2017-Jun-23 20:28 344 6 gusting 7 22.8
2017-Jun-23 20:24 315 2 gusting 9 22.8
2017-Jun-23 20:18 350 2 gusting 9 23.3
2017-Jun-23 20:14 292 6 gusting 9 23.3
2017-Jun-23 20:10 312 3 gusting 7 23.3
2017-Jun-23 20:04 322 2 gusting 7 23.9
2017-Jun-23 20:00 251 1 gusting 9 23.9
2017-Jun-23 19:53 319 4 gusting 8 24.4
2017-Jun-23 19:49 282 3 gusting 7 24.4
2017-Jun-23 19:43 316 2 gusting 9 25.0
2017-Jun-23 19:39 358 6 gusting 8 25.0
2017-Jun-23 19:33 309 4 gusting 8 25.6
2017-Jun-23 19:29 333 3 gusting 9 25.6
2017-Jun-23 19:23 341 6 gusting 7 26.1
2017-Jun-23 19:19 329 4 gusting 11 26.1
2017-Jun-23 19:13 299 6 gusting 9 26.1
2017-Jun-23 19:09 317 2 gusting 7 26.7
2017-Jun-23 19:03 357 4 gusting 9 26.1
2017-Jun-23 18:59 331 5 gusting 13 26.7
2017-Jun-23 18:55 350 3 gusting 11 27.2
2017-Jun-23 18:49 002 2 gusting 9 27.2
2017-Jun-23 18:45 025 5 gusting 7 27.2
2017-Jun-23 18:38 354 3 gusting 8 27.8
2017-Jun-23 18:34 358 6 gusting 8 27.8
2017-Jun-23 18:28 340 3 gusting 9 27.8
2017-Jun-23 18:24 315 2 gusting 6 28.9
2017-Jun-23 18:18 319 2 gusting 8 28.9
2017-Jun-23 18:14 023 3 gusting 8 28.3
2017-Jun-23 18:08 233 0 gusting 6 30.0
2017-Jun-23 18:04 299 4 gusting 9 29.4
2017-Jun-23 17:58 267 1 gusting 7 29.4
2017-Jun-23 17:54 324 4 gusting 8 28.9
2017-Jun-23 17:48 018 6 gusting 11 29.4
2017-Jun-23 17:44 019 3 gusting 7 29.4
2017-Jun-23 17:38 295 4 gusting 9 30.0
2017-Jun-23 17:34 316 6 gusting 11 29.4
2017-Jun-23 17:30 047 2 gusting 8 30.0
2017-Jun-23 17:24 303 3 gusting 11 31.1
2017-Jun-23 17:19 316 5 gusting 6 31.7
2017-Jun-23 17:13 302 6 gusting 6 32.2
2017-Jun-23 17:09 333 3 gusting 7 32.2
2017-Jun-23 17:03 319 6 gusting 7 32.8
2017-Jun-23 16:59 234 1 gusting 9 32.2
2017-Jun-23 16:53 319 2 gusting 6 31.7
2017-Jun-23 16:49 004 1 gusting 8 32.2
2017-Jun-23 16:43 330 2 gusting 8 32.8
2017-Jun-23 16:39 333 3 gusting 6 32.8
2017-Jun-23 16:33 316 4 gusting 9 33.3
2017-Jun-23 16:29 326 3 gusting 7 33.3
2017-Jun-23 16:25 310 2 gusting 8 33.3
2017-Jun-23 16:19 313 3 gusting 8 32.8
2017-Jun-23 16:15 225 1 gusting 11 32.8
2017-Jun-23 16:09 267 2 gusting 10 32.8
2017-Jun-23 16:04 306 4 gusting 11 32.8
2017-Jun-23 15:58 284 3 gusting 9 32.8
2017-Jun-23 15:54 313 6 gusting 8 33.3
2017-Jun-23 15:46 309 3 gusting 7 33.3
2017-Jun-23 15:44 312 3 gusting 7 33.3
2017-Jun-23 15:38 317 5 gusting 7 32.8
2017-Jun-23 15:34 358 2 gusting 8 33.3
2017-Jun-23 15:28 285 1 gusting 11 32.2
2017-Jun-23 15:24 344 3 gusting 12 32.8
2017-Jun-23 15:18 305 3 gusting 10 33.3
2017-Jun-23 15:14 355 10 gusting 13 33.3
2017-Jun-23 15:08 281 6 gusting 13 32.8
2017-Jun-23 15:04 286 7 gusting 9 33.3
2017-Jun-23 15:00 288 5 gusting 12 33.9
2017-Jun-23 14:54 018 2 gusting 10 33.9
2017-Jun-23 14:50 272 3 gusting 10 33.9
2017-Jun-23 14:43 306 3 gusting 8 33.9
2017-Jun-23 14:39 316 3 gusting 8 34.4
2017-Jun-23 14:33 313 5 gusting 8 34.4
2017-Jun-23 14:29 286 4 gusting 11 34.4
2017-Jun-23 14:23 296 4 gusting 10 35.0
2017-Jun-23 14:19 317 35.0
2017-Jun-23 14:13 300 2 gusting 10 34.4
2017-Jun-23 14:09 312 7 gusting 9 33.9
2017-Jun-23 14:03 299 3 gusting 9 35.0
2017-Jun-23 13:59 305 4 gusting 6 35.6
2017-Jun-23 13:53 236 2 gusting 5 35.0
2017-Jun-23 13:49 250 0 gusting 7 35.0
2017-Jun-23 13:45 254 4 gusting 8 35.0
2017-Jun-23 13:39 028 3 gusting 7 35.0
2017-Jun-23 13:35 278 3 gusting 6 35.0
2017-Jun-23 13:28 291 34.4
2017-Jun-23 13:24 309 3 gusting 6 34.4
2017-Jun-23 13:18 307 1 gusting 6 34.4
2017-Jun-23 13:14 288 0 gusting 5 34.4
2017-Jun-23 13:06 295 1 gusting 6 33.3
2017-Jun-23 13:04 305 6 gusting 6 33.3
2017-Jun-23 12:58 233 5 gusting 6 33.3
2017-Jun-23 12:54 254 2 gusting 7 32.8
2017-Jun-23 12:48 284 2 gusting 8 33.3
2017-Jun-23 12:44 312 4 gusting 6 32.8
2017-Jun-23 12:38 244 32.8
2017-Jun-23 12:34 317 2 gusting 6 32.2
2017-Jun-23 12:30 312 5 gusting 7 32.2
2017-Jun-23 12:24 298 5 gusting 8 31.7
2017-Jun-23 12:20 331 2 gusting 11 31.1
2017-Jun-23 12:14 284 7 gusting 13 31.1
2017-Jun-23 12:09 329 6 gusting 11 31.1
2017-Jun-23 12:03 291 8 gusting 8 31.1
2017-Jun-23 11:59 293 1 gusting 5 31.7
2017-Jun-23 11:51 313 1 gusting 8 30.6
2017-Jun-23 11:49 300 0 gusting 8 30.0
2017-Jun-23 11:43 015 3 gusting 9 29.4
2017-Jun-23 11:39 323 4 gusting 7 29.4
2017-Jun-23 11:33 340 4 gusting 8 30.0
2017-Jun-23 11:29 354 1 gusting 7 29.4
2017-Jun-23 11:23 340 4 gusting 8 29.4
2017-Jun-23 11:19 293 4 gusting 5 30.0
2017-Jun-23 11:13 336 2 gusting 6 29.4
2017-Jun-23 11:09 307 2 gusting 4 29.4
2017-Jun-23 11:05 327 2 gusting 6 29.4
2017-Jun-23 10:59 312 5 gusting 6 29.4
2017-Jun-23 10:55 329 3 gusting 9 28.9
2017-Jun-23 10:48 270 3 gusting 6 28.9
2017-Jun-23 10:44 320 2 gusting 6 28.3
2017-Jun-23 10:38 296 27.8
2017-Jun-23 10:34 229 1 gusting 6 27.8
2017-Jun-23 10:28 170 0 gusting 6 27.2
2017-Jun-23 10:24 355 0 gusting 6 26.7
2017-Jun-23 10:18 313 3 gusting 6 26.1
2017-Jun-23 10:14 262 1 gusting 6 26.1
2017-Jun-23 10:08 327 3 gusting 9 25.6
2017-Jun-23 10:04 338 3 gusting 7 26.1
2017-Jun-23 09:58 337 2 gusting 6 26.1
2017-Jun-23 09:54 070 25.6
2017-Jun-23 09:50 324 5 gusting 5 26.1
2017-Jun-23 09:44 118 25.6
2017-Jun-23 09:40 343 0 gusting 8 24.4
2017-Jun-23 09:33 315 5 gusting 6 24.4
2017-Jun-23 09:29 324 4 gusting 8 24.4
2017-Jun-23 09:23 322 2 gusting 6 23.9
2017-Jun-23 09:19 206 1 gusting 5 24.4
2017-Jun-23 09:13 104 0 gusting 8 23.9
2017-Jun-23 09:09 312 2 gusting 10 23.3
2017-Jun-23 09:03 260 23.3
2017-Jun-23 08:59 292 1 gusting 9 22.8
2017-Jun-23 08:53 331 2 gusting 10 22.2
2017-Jun-23 08:49 22.2
2017-Jun-23 08:43 039 6 gusting 9 22.2
2017-Jun-23 08:39 307 3 gusting 7 22.2
2017-Jun-23 08:35 338 4 gusting 6 22.2
2017-Jun-23 08:29 329 3 gusting 11 21.7
2017-Jun-23 08:25 317 5 gusting 7 21.1
2017-Jun-23 08:19 303 4 gusting 9 21.1
2017-Jun-23 08:14 315 1 gusting 9 21.1
2017-Jun-23 08:08 322 2 gusting 11 20.6
2017-Jun-23 08:04 347 6 gusting 11 20.6
2017-Jun-23 07:58 351 2 gusting 7 20.6
2017-Jun-23 07:54 331 4 gusting 13 20.6
2017-Jun-23 07:48 317 4 gusting 13 20.0
2017-Jun-23 07:44 029 5 gusting 9 20.6
2017-Jun-23 07:38 329 6 gusting 8 20.6
2017-Jun-23 07:34 330 6 gusting 6 20.6
2017-Jun-23 07:28 347 3 gusting 9 20.0
2017-Jun-23 07:24 327 7 gusting 8 19.4
2017-Jun-23 07:18 015 2 gusting 9 19.4
2017-Jun-23 07:14 014 3 gusting 7 20.0
2017-Jun-23 07:10 330 3 gusting 7 20.0
2017-Jun-23 07:04 340 2 gusting 7 20.6
2017-Jun-23 06:59 316 3 gusting 11 19.4
2017-Jun-23 06:53 327 5 gusting 7 18.9
2017-Jun-23 06:49 310 2 gusting 11 18.3
2017-Jun-23 06:43 340 3 gusting 9 17.8
2017-Jun-23 06:39 319 3 gusting 8 16.7
2017-Jun-23 06:33 347 5 gusting 9 16.7
2017-Jun-23 06:29 012 4 gusting 6 16.7
2017-Jun-23 06:23 324 5 gusting 6 16.7
2017-Jun-23 06:19 329 2 gusting 7 16.7
2017-Jun-23 06:13 012 4 gusting 6 16.7
2017-Jun-23 06:09 315 3 gusting 7 16.7
2017-Jun-23 06:03 271 1 gusting 7 16.7
2017-Jun-23 05:59 333 3 gusting 6 16.7
2017-Jun-23 05:55 026 2 gusting 5 16.7
2017-Jun-23 05:49 331 2 gusting 5 16.7
2017-Jun-23 05:45 327 2 gusting 5 16.1
2017-Jun-23 05:38 070 16.1
2017-Jun-23 05:34 313 4 gusting 6 16.1
2017-Jun-23 05:28 315 4 gusting 7 16.1
2017-Jun-23 05:24 023 4 gusting 7 16.1
2017-Jun-23 05:18 358 1 gusting 6 16.1
2017-Jun-23 05:14 323 1 gusting 7 16.1
2017-Jun-23 05:08 067 0 gusting 6 16.1
2017-Jun-23 05:04 293 3 gusting 9 16.1
2017-Jun-23 04:58 052 3 gusting 8 16.1
2017-Jun-23 04:54 330 6 gusting 7 16.1
2017-Jun-23 04:48 285 4 gusting 7 16.1
2017-Jun-23 04:44 358 4 gusting 7 16.1
2017-Jun-23 04:40 336 4 gusting 8 16.1
2017-Jun-23 04:34 316 4 gusting 8 16.1
2017-Jun-23 04:30 352 3 gusting 8 16.1
2017-Jun-23 04:23 341 2 gusting 6 16.1
2017-Jun-23 04:19 323 1 gusting 6 16.1
2017-Jun-23 04:13 285 2 gusting 6 16.1
2017-Jun-23 04:09 327 4 gusting 5 16.7
2017-Jun-23 04:03 333 1 gusting 6 16.1
2017-Jun-23 03:59 016 2 gusting 6 16.7
2017-Jun-23 03:53 315 4 gusting 6 16.7
2017-Jun-23 03:49 293 5 gusting 6 16.7
2017-Jun-23 03:43 351 2 gusting 8 16.7
2017-Jun-23 03:39 324 1 gusting 6 16.7
2017-Jun-23 03:33 316 2 gusting 5 16.7
2017-Jun-23 03:29 306 1 gusting 4 16.7
2017-Jun-23 03:25 288 2 gusting 6 16.7
2017-Jun-23 03:19 052 16.7
2017-Jun-23 03:15 334 4 gusting 5 16.7
2017-Jun-23 03:09 310 1 gusting 5 16.7
2017-Jun-23 03:04 352 0 gusting 6 16.7
2017-Jun-23 02:58 312 1 gusting 6 16.7
2017-Jun-23 02:54 132 0 gusting 6 16.7
2017-Jun-23 02:48 203 0 gusting 5 17.2
2017-Jun-23 02:44 001 3 gusting 6 17.2
2017-Jun-23 02:38 281 2 gusting 6 17.2
2017-Jun-23 02:34 296 0 gusting 6 16.7
2017-Jun-23 02:28 350 6 gusting 7 17.2
2017-Jun-23 02:24 331 6 gusting 7 17.2
2017-Jun-23 02:18 343 3 gusting 6 17.2
2017-Jun-23 02:14 007 3 gusting 6 17.2
2017-Jun-23 02:10 018 0 gusting 6 17.2
2017-Jun-23 02:04 345 1 gusting 7 17.2
2017-Jun-23 02:00 056 2 gusting 6 17.2
2017-Jun-23 01:54 005 1 gusting 7 17.2
2017-Jun-23 01:49 028 2 gusting 12 17.2
2017-Jun-23 01:43 352 4 gusting 7 17.2
2017-Jun-23 01:39 001 3 gusting 8 17.2
2017-Jun-23 01:33 358 2 gusting 11 17.2
2017-Jun-23 01:29 317 6 gusting 8 17.2
2017-Jun-23 01:21 358 5 gusting 13 17.2
2017-Jun-23 01:19 340 4 gusting 13 17.2
2017-Jun-23 01:13 355 4 gusting 10 17.2
2017-Jun-23 01:09 351 3 gusting 8 17.8
2017-Jun-23 01:03 091 0 gusting 8 17.8
2017-Jun-23 00:59 355 4 gusting 7 17.8
2017-Jun-23 00:55 292 2 gusting 8 17.8
2017-Jun-23 00:49 014 4 gusting 6 17.8
2017-Jun-23 00:45 327 1 gusting 7 17.8
2017-Jun-23 00:39 347 5 gusting 7 17.8
2017-Jun-23 00:35 323 3 gusting 6 17.8
2017-Jun-23 00:28 323 2 gusting 7 17.8
2017-Jun-22 23:28 023 5 gusting 9 18.9
2017-Jun-22 23:24 329 4 gusting 6 18.9
2017-Jun-22 23:20 322 3 gusting 7 18.9
2017-Jun-22 23:14 341 5 gusting 9 18.9
2017-Jun-22 23:09 345 3 gusting 7 19.4
2017-Jun-22 23:03 317 5 gusting 6 19.4
2017-Jun-22 22:59 330 3 gusting 9 19.4
2017-Jun-22 22:53 310 4 gusting 6 19.4
2017-Jun-22 22:49 323 4 gusting 5 19.4
2017-Jun-22 22:43 316 1 gusting 6 20.0
2017-Jun-22 22:39 319 3 gusting 6 20.0
2017-Jun-22 22:33 241 1 gusting 7 20.0
2017-Jun-22 22:29 261 0 gusting 6 19.4
2017-Jun-22 22:23 307 4 gusting 6 19.4
2017-Jun-22 22:19 358 4 gusting 7 19.4
2017-Jun-22 22:15 340 1 gusting 8 20.0
2017-Jun-22 22:09 015 1 gusting 6 20.0
2017-Jun-22 22:05 20.0
2017-Jun-22 21:59 343 2 gusting 7 20.6
2017-Jun-22 21:54 355 3 gusting 7 20.6
2017-Jun-22 21:48 277 0 gusting 6 21.1
2017-Jun-22 21:44 300 2 gusting 10 21.1
2017-Jun-22 21:38 282 2 gusting 6 21.1
2017-Jun-22 21:34 303 1 gusting 6 21.1
2017-Jun-22 21:28 340 1 gusting 6 21.7
2017-Jun-22 21:24 310 1 gusting 6 21.7
2017-Jun-22 21:18 033 3 gusting 6 21.7
2017-Jun-22 21:14 303 2 gusting 6 21.7
2017-Jun-22 21:08 222 2 gusting 6 21.7
2017-Jun-22 21:04 295 4 gusting 5 22.2
2017-Jun-22 20:58 343 3 gusting 8 22.2
2017-Jun-22 20:54 299 2 gusting 5 22.2
2017-Jun-22 20:50 315 3 gusting 5 22.8
2017-Jun-22 20:44 337 3 gusting 5 22.8
2017-Jun-22 20:40 338 1 gusting 5 22.8
2017-Jun-22 20:33 285 2 gusting 5 23.3
2017-Jun-22 20:29 343 3 gusting 5 23.3
2017-Jun-22 20:23 302 2 gusting 5 23.9
2017-Jun-22 20:19 336 0 gusting 3 23.3
2017-Jun-22 20:13 344 0 gusting 6 23.9
2017-Jun-22 20:09 341 23.9
2017-Jun-22 20:03 317 2 gusting 4 23.9
2017-Jun-22 19:59 345 0 gusting 7 23.9
2017-Jun-22 19:53 358 2 gusting 12 23.9
2017-Jun-22 19:49 358 6 gusting 8 24.4
2017-Jun-22 19:43 320 4 gusting 9 24.4
2017-Jun-22 19:39 327 4 gusting 7 24.4
2017-Jun-22 19:35 012 2 gusting 7 25.0
2017-Jun-22 19:29 222 0 gusting 6 25.6
2017-Jun-22 19:25 323 1 gusting 6 25.6
2017-Jun-22 19:18 327 4 gusting 7 26.1
2017-Jun-22 19:14 348 4 gusting 9 25.6
2017-Jun-22 19:08 282 4 gusting 8 26.1
2017-Jun-22 19:04 322 4 gusting 9 26.1
2017-Jun-22 18:58 330 4 gusting 9 26.7
2017-Jun-22 18:54 026 2 gusting 10 26.7
2017-Jun-22 18:48 334 4 gusting 8 27.2
2017-Jun-22 18:44 348 2 gusting 9 27.2
2017-Jun-22 18:38 315 0 gusting 10 27.8
2017-Jun-22 18:34 343 6 gusting 7 27.8
2017-Jun-22 18:28 331 6 gusting 9 28.3
2017-Jun-22 18:24 336 6 gusting 7 28.3
2017-Jun-22 18:20 285 2 gusting 8 28.9
2017-Jun-22 18:14 012 3 gusting 8 28.9
2017-Jun-22 18:10 348 5 gusting 8 29.4
2017-Jun-22 18:04 303 1 gusting 7 29.4
2017-Jun-22 17:59 354 6 gusting 7 29.4
2017-Jun-22 17:53 046 1 gusting 8 30.0
2017-Jun-22 17:49 340 2 gusting 8 30.0
2017-Jun-22 17:43 327 5 gusting 8 29.4
2017-Jun-22 17:39 340 6 gusting 8 30.0
2017-Jun-22 17:33 306 8 gusting 10 30.6
2017-Jun-22 17:29 348 4 gusting 7 31.7
2017-Jun-22 17:23 327 2 gusting 6 31.7
2017-Jun-22 17:19 327 2 gusting 8 31.1
2017-Jun-22 17:13 338 5 gusting 6 31.1
2017-Jun-22 17:09 319 5 gusting 6 32.2
2017-Jun-22 17:03 326 0 gusting 8 31.7
2017-Jun-22 16:59 309 3 gusting 7 31.7
2017-Jun-22 16:55 300 4 gusting 7 32.2
2017-Jun-22 16:49 317 4 gusting 7 32.8
2017-Jun-22 16:44 358 5 gusting 7 32.2
2017-Jun-22 16:38 337 0 gusting 9 31.7
2017-Jun-22 16:34 258 2 gusting 8 31.7
2017-Jun-22 16:28 340 3 gusting 11 31.1
2017-Jun-22 16:24 337 1 gusting 8 32.2
2017-Jun-22 16:18 025 1 gusting 9 32.2
2017-Jun-22 16:14 320 3 gusting 7 31.7
2017-Jun-22 16:08 323 6 gusting 6 32.8
2017-Jun-22 16:04 296 4 gusting 10 32.2
2017-Jun-22 15:58 289 1 gusting 7 32.8
2017-Jun-22 15:54 300 2 gusting 9 32.8
2017-Jun-22 15:48 005 0 gusting 8 33.3
2017-Jun-22 15:44 334 2 gusting 7 32.8
2017-Jun-22 15:40 278 4 gusting 6 32.2
2017-Jun-22 15:34 305 4 gusting 7 32.8
2017-Jun-22 15:30 243 1 gusting 8 32.2
2017-Jun-22 15:23 239 2 gusting 9 32.8
2017-Jun-22 15:19 315 5 gusting 9 32.2
2017-Jun-22 15:13 329 6 gusting 10 32.2
2017-Jun-22 15:09 281 4 gusting 7 33.3
2017-Jun-22 15:03 358 5 gusting 8 32.2
2017-Jun-22 14:59 338 4 gusting 9 32.2
2017-Jun-22 14:53 288 5 gusting 8 32.2
2017-Jun-22 14:49 286 3 gusting 12 31.7
2017-Jun-22 14:43 340 5 gusting 8 32.8
2017-Jun-22 14:39 309 4 gusting 7 32.8
2017-Jun-22 14:33 303 2 gusting 8 33.3
2017-Jun-22 14:29 319 33.3
2017-Jun-22 14:25 322 3 gusting 7 33.3
2017-Jun-22 14:19 322 1 gusting 9 32.8
2017-Jun-22 14:15 310 6 gusting 8 33.3
2017-Jun-22 14:08 264 2 gusting 8 33.3
2017-Jun-22 14:04 281 2 gusting 7 33.9
2017-Jun-22 13:58 281 2 gusting 6 33.9
2017-Jun-22 13:54 293 33.3
2017-Jun-22 13:48 161 32.8
2017-Jun-22 13:44 323 6 gusting 4 33.9
2017-Jun-22 13:38 310 2 gusting 3 33.9
2017-Jun-22 13:34 265 0 gusting 5 33.3
2017-Jun-22 13:28 302 3 gusting 8 32.8
2017-Jun-22 13:24 284 2 gusting 5 33.3
2017-Jun-22 13:18 237 2 gusting 6 33.9
2017-Jun-22 13:14 288 1 gusting 6 33.3
2017-Jun-22 13:10 227 3 gusting 6 33.3
2017-Jun-22 13:04 227 4 gusting 4 32.2
2017-Jun-22 13:00 227 2 gusting 8 31.7
2017-Jun-22 12:54 310 5 gusting 8 31.1
2017-Jun-22 12:49 306 3 gusting 6 31.1
2017-Jun-22 12:43 271 0 gusting 4 31.1
2017-Jun-22 12:39 331 2 gusting 4 31.7
2017-Jun-22 12:33 281 1 gusting 6 31.7
2017-Jun-22 12:29 298 2 gusting 3 31.7
2017-Jun-22 12:23 327 0 gusting 5 31.7
2017-Jun-22 12:19 244 0 gusting 5 31.1
2017-Jun-22 12:13 258 2 gusting 5 31.1
2017-Jun-22 12:09 180 30.6
2017-Jun-22 12:03 347 2 gusting 4 29.4
2017-Jun-22 11:59 277 28.9
2017-Jun-22 11:53 322 6 gusting 6 28.9
2017-Jun-22 11:49 334 5 gusting 6 28.3
2017-Jun-22 11:45 272 5 gusting 6 28.9
2017-Jun-22 11:39 306 2 gusting 6 28.9
2017-Jun-22 11:34 336 3 gusting 6 28.9
2017-Jun-22 11:28 232 28.3
2017-Jun-22 11:24 284 2 gusting 6 28.3
2017-Jun-22 11:18 222 27.8
2017-Jun-22 11:14 303 3 gusting 7 27.2
2017-Jun-22 11:08 347 27.8
2017-Jun-22 11:04 299 6 gusting 7 28.3
2017-Jun-22 10:58 327 1 gusting 3 28.3
2017-Jun-22 10:54 260 28.3
2017-Jun-22 10:48 341 2 gusting 6 27.2
2017-Jun-22 10:44 313 5 gusting 6 27.2
2017-Jun-22 10:38 255 0 gusting 5 27.8
2017-Jun-22 10:34 151 1 gusting 4 27.8
2017-Jun-22 10:30 258 2 gusting 5 27.2
2017-Jun-22 10:24 296 3 gusting 6 26.1
2017-Jun-22 10:20 350 0 gusting 5 26.1
2017-Jun-22 10:13 285 0 gusting 6 26.1
2017-Jun-22 10:09 289 2 gusting 6 26.1
2017-Jun-22 10:03 357 26.1
2017-Jun-22 09:59 282 2 gusting 6 25.6
2017-Jun-22 09:53 319 3 gusting 5 25.6
2017-Jun-22 09:49 007 25.0
2017-Jun-22 09:43 295 26.1
2017-Jun-22 09:39 299 26.1
2017-Jun-22 09:33 210 25.6
2017-Jun-22 09:29 240 2 gusting 4 25.0
2017-Jun-22 09:23 300 0 gusting 3 25.0
2017-Jun-22 09:19 230 24.4
2017-Jun-22 09:15 278 2 gusting 4 23.9
2017-Jun-22 09:09 299 0 gusting 3 24.4
2017-Jun-22 09:05 307 0 gusting 6 24.4
2017-Jun-22 08:58 306 23.9
2017-Jun-22 08:54 270 0 gusting 5 23.9
2017-Jun-22 08:48 285 3 gusting 4 23.9
2017-Jun-22 08:44 213 23.9
2017-Jun-22 08:38 289 2 gusting 4 23.9
2017-Jun-22 08:34 281 2 gusting 2 23.9
2017-Jun-22 08:28 216 23.3
2017-Jun-22 08:24 327 0 gusting 3 23.3
2017-Jun-22 08:18 330 0 gusting 3 23.3
2017-Jun-22 08:14 319 23.3
2017-Jun-22 08:08 300 2 gusting 4 23.3
2017-Jun-22 08:04 236 23.3
2017-Jun-22 07:58 303 23.3
2017-Jun-22 07:54 285 23.9
2017-Jun-22 07:50 291 23.9
2017-Jun-22 07:44 327 23.3
2017-Jun-22 07:39 253 23.9
2017-Jun-22 07:33 001 0 gusting 2 23.9
2017-Jun-22 07:29 338 0 gusting 3 23.3
2017-Jun-22 07:23 270 23.9
2017-Jun-22 07:19 23.9
2017-Jun-22 07:13 241 25.0
2017-Jun-22 07:09 239 0 gusting 2 25.0
2017-Jun-22 07:03 215 24.4
2017-Jun-22 06:59 185 23.9
2017-Jun-22 06:53 216 22.8
2017-Jun-22 06:49 181 22.2
2017-Jun-22 06:43 129 20.6
2017-Jun-22 06:39 129 20.0
2017-Jun-22 06:35 129 20.0
2017-Jun-22 06:29 129 19.4
2017-Jun-22 06:25 129 19.4
2017-Jun-22 06:18 129 18.9
2017-Jun-22 06:14 123 18.9
2017-Jun-22 06:08 130 18.9
2017-Jun-22 06:04 130 18.9
2017-Jun-22 05:56 057 18.9
2017-Jun-22 05:54 057 18.9
2017-Jun-22 05:48 057 18.9
2017-Jun-22 05:44 057 18.9
2017-Jun-22 05:38 057 18.9
2017-Jun-22 05:34 057 18.3
2017-Jun-22 05:28 057 18.3
2017-Jun-22 05:24 057 18.3
2017-Jun-22 05:20 105 18.3
2017-Jun-22 05:14 171 0 gusting 1 18.3
2017-Jun-22 05:10 149 1 gusting 3 18.3
2017-Jun-22 05:03 198 1 gusting 2 18.3
2017-Jun-22 04:59 227 0 gusting 3 18.3
2017-Jun-22 04:53 202 1 gusting 2 18.3
2017-Jun-22 04:49 181 0 gusting 2 18.3
2017-Jun-22 04:43 158 18.3
2017-Jun-22 04:39 182 18.3
2017-Jun-22 04:31 177 1 gusting 1 18.3
2017-Jun-22 04:29 158 0 gusting 1 18.9
2017-Jun-22 04:23 161 1 gusting 3 18.9
2017-Jun-22 04:19 172 1 gusting 2 18.9
2017-Jun-22 04:13 125 18.9
2017-Jun-22 04:09 189 0 gusting 2 19.4
2017-Jun-22 04:05 194 1 gusting 2 19.4
2017-Jun-22 03:59 165 0 gusting 0 19.4
2017-Jun-22 03:55 140 19.4
2017-Jun-22 03:49 140 19.4
2017-Jun-22 03:44 140 19.4
2017-Jun-22 03:38 140 20.0
2017-Jun-22 03:34 140 19.4
2017-Jun-22 03:28 140 19.4
2017-Jun-22 03:24 140 20.0
2017-Jun-22 03:18 140 20.0
2017-Jun-22 03:14 140 19.4
2017-Jun-22 03:08 140 19.4
2017-Jun-22 03:04 140 20.0
2017-Jun-22 02:58 140 20.0
2017-Jun-22 02:54 140 20.0
2017-Jun-22 02:48 157 20.0
2017-Jun-22 02:44 192 0 gusting 2 19.4
2017-Jun-22 02:40 188 0 gusting 1 19.4
2017-Jun-22 02:34 150 0 gusting 1 20.0
2017-Jun-22 02:30 157 0 gusting 1 20.0
2017-Jun-22 02:23 174 0 gusting 2 20.0
2017-Jun-22 02:19 163 0 gusting 2 20.0
2017-Jun-22 02:13 199 1 gusting 2 20.0
2017-Jun-22 02:09 216 0 gusting 3 20.0
2017-Jun-22 02:03 215 3 gusting 4 20.0
2017-Jun-22 01:59 208 1 gusting 2 20.0
2017-Jun-22 01:53 248 1 gusting 3 20.0
2017-Jun-22 01:49 254 1 gusting 3 20.0
2017-Jun-22 01:43 195 2 gusting 3 20.0
2017-Jun-22 01:39 202 2 gusting 3 20.0
2017-Jun-22 01:33 213 0 gusting 4 20.0
2017-Jun-22 01:29 230 2 gusting 3 20.6
2017-Jun-22 01:25 247 2 gusting 2 20.6
2017-Jun-22 01:19 298 20.6
2017-Jun-22 01:15 327 20.0
2017-Jun-22 01:08 327 20.6
2017-Jun-22 01:04 327 20.6